Asuncion, Paraguay

2:45 AM -04 en Junio 24, 2018 (GMT -0400)
Silvio Pettirossi International

Tiempo Historia de SGAS - Junio, 2018

Change the Weather History Date:

Miércoles, Junio 13, 2018

  Actual Average Record
Temperature  
Temperatura media 52 ° F -  
Temperatura máxima 59 ° F 73 ° F 89 ° F (2003)
Temperatura mínima 42 ° F 56 ° F 36 ° F (2016)
Degree Days  
Grados día de calefacción 13    
Growing Degree Days 2 (Base 50)    
Moisture  
Punto de rocío 42 ° F    
Average Humidity 69    
Maximum Humidity 93    
Minimum Humidity 36    
Precipitación  
Precipitación 0.00 pul 0.08 pul - ()
Presión al nivel del mar  
Presión al nivel del mar 30.28 pul    
Viento  
Velocidad del viento 9 mph ()    
Velocidad máxima del viento 18 mph    
Max Gust Speed 23 mph    
Visibilidad 8.1 Millas    
Eventos      
Averages and records for this station are not official NWS values.
T = Trace of Precipitation, MM = Missing Value Source: Averaged Metar Reports

Daily Weather History Graph

Daily Weather History Graph

Search for Another Location

Airport or City:

Astronomía

Jun. 13, 2018 Salida Puesta
Hora real 6:32 AM -04 5:07 PM -04
Crepúsculo civil 6:07 AM -04 5:32 PM -04
Crepúsculo náutico 5:39 AM -04 6:01 PM -04
Crepúsculo astronómico 5:11 AM -04 6:29 PM -04
Luna 6:05 AM -04 (6/13) 5:14 PM -04 (6/13)
Horas de luz 11h 24m
Horas de luz
10h 34m
Creciente menguante, 0% of the Moon is Illuminated
Jun 13
Creciente menguante
Jun 13
Nueva
Jun 20
Cuarto creciente
Jun 28
Luna llena
Jul 6
Cuarto menguante

Hourly Weather History & Observations

Hora (-04) Temp. Vientos helados Punto de rocío Humedad Presión Visibilidad Wind Dir Velocidad del viento Velocidad de ráfagas Precip Eventos Condiciones
12:00 AM 51.8 ° F - 44.6 ° F 76% 30.21 pul - SSO 10.4 mph - N/A   Despejado
1:00 AM 50.0 ° F - 44.6 ° F 82% 30.24 pul - SO 6.9 mph - N/A   Despejado
2:00 AM 51 ° F - 49 ° F 88% 30.22 pul 12 mi Sur 18.4 mph - -   Muy nublado
2:00 AM 51.8 ° F - 44.6 ° F 76% 30.21 pul 6.2 mi Sur 11.5 mph 23.0 mph N/A   Muy nublado
3:00 AM 50.0 ° F - 42.8 ° F 76% 30.21 pul 6.2 mi Sur 17.3 mph - N/A   Parcialmente nublado
4:00 AM 48.2 ° F - 42.8 ° F 82% 30.24 pul 6.2 mi Sur 16.1 mph - N/A   Muy nublado
5:00 AM 49 ° F - 43 ° F 71% 30.22 pul 12 mi SSO 11.5 mph - -   Nubes dispersas
5:00 AM 48.2 ° F - 42.8 ° F 82% 30.24 pul 6.2 mi SSO 11.5 mph - N/A   Parcialmente nublado
6:00 AM 46.4 ° F 41.9 ° F 42.8 ° F 87% 30.24 pul 6.2 mi Sur 9.2 mph - N/A   Parcialmente nublado
7:00 AM 46.4 ° F 41.9 ° F 42.8 ° F 87% 30.27 pul 6.2 mi Sur 9.2 mph - N/A   Parcialmente nublado
7:30 AM 48.2 ° F - 42.8 ° F 82% 30.27 pul 6.2 mi Sur 9.2 mph - N/A   Parcialmente nublado
8:00 AM 49 ° F - 43 ° F 73% 30.31 pul 12 mi SSE 6.9 mph - -   Parcialmente nublado
8:00 AM 50.0 ° F - 42.8 ° F 76% 30.30 pul 6.2 mi SSE 6.9 mph - N/A   Nubes dispersas
8:30 AM 50.0 ° F - 41.0 ° F 71% 30.33 pul 6.2 mi Sur 9.2 mph - N/A   Muy nublado
9:00 AM 51.8 ° F - 41.0 ° F 67% 30.33 pul 6.2 mi Sur 10.4 mph - N/A   Muy nublado
9:30 AM 51.8 ° F - 41.0 ° F 67% 30.33 pul 6.2 mi Sur 11.5 mph - N/A   Nubes dispersas
10:00 AM 53.6 ° F - 41.0 ° F 62% 30.33 pul 6.2 mi SSE 9.2 mph - N/A   Nubes dispersas
11:00 AM 55 ° F - 41 ° F 48% 30.34 pul 12 mi Sur 8.1 mph - -   Parcialmente nublado
11:00 AM 55.4 ° F - 42.8 ° F 63% 30.33 pul 6.2 mi Sur 8.1 mph - N/A   Nubes dispersas
12:00 PM 57.2 ° F - 41.0 ° F 55% 30.33 pul 6.2 mi Sur 8.1 mph - N/A   Nubes dispersas
1:00 PM 57.2 ° F - 41.0 ° F 55% 30.30 pul 6.2 mi SSO 9.2 mph - N/A   Parcialmente nublado
2:00 PM 59 ° F - 39 ° F 36% 30.29 pul 12 mi SSO 10.4 mph - -   Nubes dispersas
2:00 PM 59.0 ° F - 39.2 ° F 48% 30.27 pul 6.2 mi Sur 10.4 mph - N/A   Parcialmente nublado
3:00 PM 59.0 ° F - 39.2 ° F 48% 30.27 pul - SSO 10.4 mph - N/A   Despejado
4:00 PM 57.2 ° F - 37.4 ° F 48% 30.24 pul - Sur 9.2 mph - N/A   Despejado
5:00 PM 55 ° F - 38 ° F 42% 30.28 pul 12 mi SSO 10.4 mph - -   Despejado
5:00 PM 53.6 ° F - 39.2 ° F 58% 30.27 pul - SSO 10.4 mph - N/A   Despejado
6:00 PM 50.0 ° F - 41.0 ° F 71% 30.27 pul - SSO 8.1 mph - N/A   Despejado
7:00 PM 50.0 ° F - 41.0 ° F 71% 30.30 pul - Sur 5.8 mph - N/A   Despejado
8:00 PM 49 ° F - 40 ° F 62% 30.32 pul 12 mi SSE 3.5 mph - -  
8:00 PM 48.2 ° F - 41.0 ° F 76% 30.30 pul - SSE 3.5 mph - N/A   Despejado
9:00 PM 48.2 ° F - 41.0 ° F 76% 30.30 pul - Sur 8.1 mph - N/A   Despejado
10:00 PM 46.4 ° F - 41.0 ° F 81% 30.33 pul - SSE 2.3 mph - N/A   Despejado
11:00 PM 45 ° F - 41 ° F 82% 30.35 pul 12 mi SE 2.3 mph - -  
11:00 PM 42.8 ° F - 41.0 ° F 93% 30.33 pul - SE 2.3 mph - N/A   Despejado